Time,TemperatureF,DewpointF,PressureIn,WindDirection,WindDirectionDegrees,WindSpeedMPH,WindSpeedGustMPH,Humidity,HourlyPrecipIn,Conditions,Clouds,dailyrainin,SoftwareType,DateUTC
2013-01-01 00:03:00,11.0,7.0,30.14,WSW,246,0.0,-999.0,85,-99.99,,,-99.99,,2013-01-01 05:03:00,
2013-01-01 00:12:00,11.0,7.0,30.14,WSW,246,0.0,-999.0,85,-99.99,,,-99.99,,2013-01-01 05:12:00,
2013-01-01 00:22:00,11.0,8.0,30.15,NW,304,1.0,-999.0,86,-99.99,,,-99.99,,2013-01-01 05:22:00,
2013-01-01 00:33:00,11.0,8.0,30.15,NW,304,1.0,-999.0,86,-99.99,,,-99.99,,2013-01-01 05:33:00,
2013-01-01 00:42:00,11.0,8.0,30.15,NW,304,1.0,-999.0,86,-99.99,,,-99.99,,2013-01-01 05:42:00,
2013-01-01 00:52:00,11.0,6.0,30.14,NW,314,4.0,-999.0,79,-99.99,,,-99.99,,2013-01-01 05:52:00,
2013-01-01 01:02:00,11.0,6.0,30.14,NNW,338,2.0,-999.0,81,-99.99,,,-99.99,,2013-01-01 06:02:00,
2013-01-01 01:12:00,11.0,6.0,30.14,NNW,338,2.0,-999.0,81,-99.99,,,-99.99,,2013-01-01 06:12:00,
2013-01-01 01:22:00,10.0,6.0,30.14,WNW,303,2.0,-999.0,82,-99.99,,,-99.99,,2013-01-01 06:22:00,
2013-01-01 01:32:00,10.0,6.0,30.14,WNW,303,1.0,-999.0,83,-99.99,,,-99.99,,2013-01-01 06:32:00,
2013-01-01 01:42:00,10.0,6.0,30.14,WNW,303,1.0,-999.0,83,-99.99,,,-99.99,,2013-01-01 06:42:00,
2013-01-01 01:52:00,10.0,6.0,30.14,NW,307,2.0,-999.0,83,-99.99,,,-99.99,,2013-01-01 06:52:00,
2013-01-01 02:02:00,10.0,6.0,30.14,NW,308,1.0,-999.0,84,-99.99,,,-99.99,,2013-01-01 07:02:00,
2013-01-01 02:12:00,10.0,6.0,30.14,NW,310,2.0,-999.0,84,-99.99,,,-99.99,,2013-01-01 07:12:00,
2013-01-01 02:22:00,10.0,6.0,30.14,NW,310,2.0,-999.0,84,-99.99,,,-99.99,,2013-01-01 07:22:00,
2013-01-01 02:32:00,10.0,6.0,30.14,NW,306,2.0,-999.0,83,-99.99,,,-99.99,,2013-01-01 07:32:00,
2013-01-01 02:42:00,10.0,6.0,30.14,NW,306,2.0,-999.0,83,-99.99,,,-99.99,,2013-01-01 07:42:00,
2013-01-01 02:52:00,10.0,5.0,30.15,NNW,329,4.0,-999.0,81,-99.99,,,-99.99,,2013-01-01 07:52:00,
2013-01-01 03:02:00,11.0,6.0,30.15,NNW,329,6.0,-999.0,80,-99.99,,,-99.99,,2013-01-01 08:02:00,
2013-01-01 03:12:00,11.0,6.0,30.15,NNW,329,6.0,-999.0,80,-99.99,,,-99.99,,2013-01-01 08:12:00,
2013-01-01 03:22:00,11.0,6.0,30.15,NNW,329,6.0,-999.0,80,-99.99,,,-99.99,,2013-01-01 08:22:00,
2013-01-01 03:32:00,10.0,5.0,30.16,NNW,344,5.0,-999.0,81,-99.99,,,-99.99,,2013-01-01 08:32:00,
2013-01-01 03:42:00,10.0,5.0,30.16,North,355,5.0,-999.0,81,-99.99,,,-99.99,,2013-01-01 08:42:00,
2013-01-01 03:53:00,10.0,5.0,30.16,North,355,5.0,-999.0,81,-99.99,,,-99.99,,2013-01-01 08:53:00,
2013-01-01 04:02:00,10.0,5.0,30.16,WNW,296,4.0,-999.0,81,-99.99,,,-99.99,,2013-01-01 09:02:00,
2013-01-01 04:12:00,10.0,5.0,30.16,WNW,296,4.0,-999.0,81,-99.99,,,-99.99,,2013-01-01 09:12:00,
2013-01-01 04:22:00,10.0,5.0,30.17,NW,315,3.0,-999.0,81,-99.99,,,-99.99,,2013-01-01 09:22:00,
2013-01-01 04:32:00,10.0,5.0,30.17,NW,311,3.0,-999.0,81,-99.99,,,-99.99,,2013-01-01 09:32:00,
2013-01-01 04:42:00,10.0,5.0,30.17,NW,311,3.0,-999.0,81,-99.99,,,-99.99,,2013-01-01 09:42:00,
2013-01-01 04:52:00,10.0,6.0,30.17,WNW,286,2.0,-999.0,82,-99.99,,,-99.99,,2013-01-01 09:52:00,
2013-01-01 05:02:00,10.0,6.0,30.17,WNW,301,3.0,-999.0,82,-99.99,,,-99.99,,2013-01-01 10:02:00,
2013-01-01 05:12:00,10.0,6.0,30.17,WNW,298,3.0,-999.0,82,-99.99,,,-99.99,,2013-01-01 10:12:00,
2013-01-01 05:22:00,10.0,6.0,30.17,WNW,298,3.0,-999.0,82,-99.99,,,-99.99,,2013-01-01 10:22:00,
2013-01-01 05:33:00,10.0,6.0,30.17,NW,308,3.0,-999.0,82,-99.99,,,-99.99,,2013-01-01 10:33:00,
2013-01-01 05:42:00,10.0,6.0,30.17,NW,308,3.0,-999.0,82,-99.99,,,-99.99,,2013-01-01 10:42:00,
2013-01-01 05:52:00,10.0,6.0,30.18,WNW,298,2.0,-999.0,82,-99.99,,,-99.99,,2013-01-01 10:52:00,
2013-01-01 06:02:00,10.0,6.0,30.18,NW,313,4.0,-999.0,82,-99.99,,,-99.99,,2013-01-01 11:02:00,
2013-01-01 06:12:00,10.0,6.0,30.18,NW,313,4.0,-999.0,82,-99.99,,,-99.99,,2013-01-01 11:12:00,
2013-01-01 06:22:00,10.0,6.0,30.18,NW,304,2.0,-999.0,82,-99.99,,,-99.99,,2013-01-01 11:22:00,
2013-01-01 06:32:00,10.0,6.0,30.18,WSW,237,2.0,-999.0,82,-99.99,,,-99.99,,2013-01-01 11:32:00,
2013-01-01 06:42:00,10.0,6.0,30.18,WSW,237,2.0,-999.0,82,-99.99,,,-99.99,,2013-01-01 11:42:00,
2013-01-01 06:53:00,11.0,7.0,30.18,NW,311,3.0,-999.0,82,-99.99,,,-99.99,,2013-01-01 11:53:00,
2013-01-01 07:02:00,10.0,6.0,30.18,NW,309,1.0,-999.0,82,-99.99,,,-99.99,,2013-01-01 12:02:00,
2013-01-01 07:12:00,10.0,6.0,30.18,NW,309,1.0,-999.0,82,-99.99,,,-99.99,,2013-01-01 12:12:00,
2013-01-01 07:22:00,10.0,6.0,30.18,NW,316,4.0,-999.0,82,-99.99,,,-99.99,,2013-01-01 12:22:00,
2013-01-01 07:32:00,11.0,7.0,30.19,WNW,292,4.0,-999.0,82,-99.99,,,-99.99,,2013-01-01 12:32:00,
2013-01-01 07:42:00,11.0,7.0,30.19,WNW,292,4.0,-999.0,82,-99.99,,,-99.99,,2013-01-01 12:42:00,
2013-01-01 07:52:00,11.0,7.0,30.19,WNW,298,1.0,-999.0,82,-99.99,,,-99.99,,2013-01-01 12:52:00,
2013-01-01 08:02:00,11.0,7.0,30.19,WNW,298,0.0,-999.0,82,-99.99,,,-99.99,,2013-01-01 13:02:00,
2013-01-01 08:12:00,11.0,7.0,30.19,WNW,298,0.0,-999.0,82,-99.99,,,-99.99,,2013-01-01 13:12:00,
2013-01-01 08:22:00,11.0,7.0,30.19,WSW,258,0.0,-999.0,83,-99.99,,,-99.99,,2013-01-01 13:22:00,
2013-01-01 08:32:00,11.0,7.0,30.18,West,259,0.0,-999.0,83,-99.99,,,-99.99,,2013-01-01 13:32:00,
2013-01-01 08:42:00,11.0,7.0,30.18,West,259,0.0,-999.0,83,-99.99,,,-99.99,,2013-01-01 13:42:00,
2013-01-01 08:52:00,11.0,7.0,30.18,West,259,0.0,-999.0,83,-99.99,,,-99.99,,2013-01-01 13:52:00,
2013-01-01 09:02:00,11.0,7.0,30.18,West,269,1.0,-999.0,82,-99.99,,,-99.99,,2013-01-01 14:02:00,
2013-01-01 09:12:00,11.0,7.0,30.18,West,269,1.0,-999.0,82,-99.99,,,-99.99,,2013-01-01 14:12:00,
2013-01-01 09:22:00,11.0,7.0,30.18,West,268,1.0,-999.0,83,-99.99,,,-99.99,,2013-01-01 14:22:00,
2013-01-01 09:32:00,11.0,7.0,30.17,West,271,0.0,-999.0,83,-99.99,,,-99.99,,2013-01-01 14:32:00,
2013-01-01 09:42:00,11.0,7.0,30.17,West,271,0.0,-999.0,83,-99.99,,,-99.99,,2013-01-01 14:42:00,
2013-01-01 09:53:00,12.0,8.0,30.18,West,270,0.0,-999.0,82,-99.99,,,-99.99,,2013-01-01 14:53:00,
2013-01-01 10:03:00,12.0,7.0,30.17,WSW,242,1.0,-999.0,81,-99.99,,,-99.99,,2013-01-01 15:03:00,
2013-01-01 10:12:00,12.0,7.0,30.17,WSW,242,1.0,-999.0,81,-99.99,,,-99.99,,2013-01-01 15:12:00,
2013-01-01 10:22:00,12.0,7.0,30.17,SSW,207,1.0,-999.0,81,-99.99,,,-99.99,,2013-01-01 15:22:00,
2013-01-01 10:33:00,13.0,8.0,30.18,WSW,250,2.0,-999.0,81,-99.99,,,-99.99,,2013-01-01 15:33:00,
2013-01-01 10:42:00,13.0,8.0,30.18,WSW,250,2.0,-999.0,81,-99.99,,,-99.99,,2013-01-01 15:42:00,
2013-01-01 10:53:00,13.0,8.0,30.18,WSW,243,1.0,-999.0,81,-99.99,,,-99.99,,2013-01-01 15:53:00,
2013-01-01 11:02:00,13.0,8.0,30.18,SW,229,2.0,-999.0,81,-99.99,,,-99.99,,2013-01-01 16:02:00,
2013-01-01 11:12:00,13.0,8.0,30.18,SW,229,2.0,-999.0,81,-99.99,,,-99.99,,2013-01-01 16:12:00,
2013-01-01 11:22:00,13.0,8.0,30.17,WSW,250,2.0,-999.0,80,-99.99,,,-99.99,,2013-01-01 16:22:00,
2013-01-01 11:33:00,14.0,8.0,30.17,SSW,206,4.0,-999.0,78,-99.99,,,-99.99,,2013-01-01 16:33:00,
2013-01-01 11:42:00,14.0,8.0,30.17,SSW,206,4.0,-999.0,78,-99.99,,,-99.99,,2013-01-01 16:42:00,
2013-01-01 11:52:00,15.0,9.0,30.16,SSE,151,4.0,-999.0,76,-99.99,,,-99.99,,2013-01-01 16:52:00,
2013-01-01 12:02:00,15.0,8.0,30.15,SSW,196,3.0,-999.0,74,-99.99,,,-99.99,,2013-01-01 17:02:00,
2013-01-01 12:12:00,15.0,8.0,30.15,SSW,196,3.0,-999.0,74,-99.99,,,-99.99,,2013-01-01 17:12:00,
2013-01-01 12:22:00,15.0,8.0,30.14,South,178,4.0,-999.0,74,-99.99,,,-99.99,,2013-01-01 17:22:00,
2013-01-01 12:33:00,15.0,8.0,30.14,WNW,302,3.0,-999.0,73,-99.99,,,-99.99,,2013-01-01 17:33:00,
2013-01-01 12:43:00,15.0,8.0,30.14,WNW,302,3.0,-999.0,73,-99.99,,,-99.99,,2013-01-01 17:43:00,
2013-01-01 12:52:00,15.0,8.0,30.14,WNW,302,3.0,-999.0,73,-99.99,,,-99.99,,2013-01-01 17:52:00,
2013-01-01 13:03:00,15.0,8.0,30.12,West,271,4.0,-999.0,72,-99.99,,,-99.99,,2013-01-01 18:03:00,
2013-01-01 13:12:00,15.0,8.0,30.12,West,271,4.0,-999.0,72,-99.99,,,-99.99,,2013-01-01 18:12:00,
2013-01-01 13:22:00,15.0,7.0,30.11,West,269,5.0,-999.0,70,-99.99,,,-99.99,,2013-01-01 18:22:00,
2013-01-01 13:33:00,15.0,7.0,30.11,WNW,291,5.0,-999.0,70,-99.99,,,-99.99,,2013-01-01 18:33:00,
2013-01-01 13:42:00,15.0,7.0,30.11,WNW,291,5.0,-999.0,70,-99.99,,,-99.99,,2013-01-01 18:42:00,
2013-01-01 13:52:00,15.0,7.0,30.11,WNW,291,5.0,-999.0,70,-99.99,,,-99.99,,2013-01-01 18:52:00,
2013-01-01 14:02:00,16.0,7.0,30.09,WSW,240,4.0,-999.0,66,-99.99,,,-99.99,,2013-01-01 19:02:00,
2013-01-01 14:12:00,16.0,7.0,30.09,WSW,240,4.0,-999.0,66,-99.99,,,-99.99,,2013-01-01 19:12:00,
2013-01-01 14:22:00,16.0,5.0,30.08,WSW,253,4.0,-999.0,62,-99.99,,,-99.99,,2013-01-01 19:22:00,
2013-01-01 14:32:00,17.0,6.0,30.07,SW,234,4.0,-999.0,61,-99.99,,,-99.99,,2013-01-01 19:32:00,
2013-01-01 14:42:00,17.0,6.0,30.07,SW,234,4.0,-999.0,61,-99.99,,,-99.99,,2013-01-01 19:42:00,
2013-01-01 14:52:00,17.0,5.0,30.06,SSW,204,4.0,-999.0,59,-99.99,,,-99.99,,2013-01-01 19:52:00,
2013-01-01 15:02:00,17.0,5.0,30.05,West,266,4.0,-999.0,58,-99.99,,,-99.99,,2013-01-01 20:02:00,
2013-01-01 15:12:00,17.0,5.0,30.05,West,266,4.0,-999.0,58,-99.99,,,-99.99,,2013-01-01 20:12:00,
2013-01-01 15:23:00,17.0,5.0,30.06,WSW,246,3.0,-999.0,58,-99.99,,,-99.99,,2013-01-01 20:23:00,
2013-01-01 15:32:00,17.0,4.0,30.05,WNW,295,3.0,-999.0,57,-99.99,,,-99.99,,2013-01-01 20:32:00,
2013-01-01 15:42:00,17.0,4.0,30.05,WNW,295,3.0,-999.0,57,-99.99,,,-99.99,,2013-01-01 20:42:00,
2013-01-01 15:52:00,17.0,5.0,30.05,WSW,240,3.0,-999.0,58,-99.99,,,-99.99,,2013-01-01 20:52:00,
2013-01-01 16:03:00,16.0,4.0,30.05,SW,225,3.0,-999.0,58,-99.99,,,-99.99,,2013-01-01 21:03:00,
2013-01-01 16:12:00,16.0,4.0,30.05,WSW,239,3.0,-999.0,58,-99.99,,,-99.99,,2013-01-01 21:12:00,
2013-01-01 16:22:00,16.0,4.0,30.05,WSW,239,3.0,-999.0,58,-99.99,,,-99.99,,2013-01-01 21:22:00,
2013-01-01 16:33:00,16.0,4.0,30.05,SW,215,2.0,-999.0,59,-99.99,,,-99.99,,2013-01-01 21:33:00,
2013-01-01 16:42:00,16.0,4.0,30.05,SW,215,2.0,-999.0,59,-99.99,,,-99.99,,2013-01-01 21:42:00,
2013-01-01 16:52:00,16.0,4.0,30.05,West,263,2.0,-999.0,59,-99.99,,,-99.99,,2013-01-01 21:52:00,
2013-01-01 17:02:00,15.0,4.0,30.05,SW,231,1.0,-999.0,60,-99.99,,,-99.99,,2013-01-01 22:02:00,
2013-01-01 17:12:00,15.0,4.0,30.05,SW,231,1.0,-999.0,60,-99.99,,,-99.99,,2013-01-01 22:12:00,
2013-01-01 17:22:00,15.0,4.0,30.05,WSW,250,2.0,-999.0,60,-99.99,,,-99.99,,2013-01-01 22:22:00,
2013-01-01 17:33:00,14.0,3.0,30.05,SW,235,1.0,-999.0,61,-99.99,,,-99.99,,2013-01-01 22:33:00,
2013-01-01 17:42:00,14.0,3.0,30.05,SW,235,1.0,-999.0,61,-99.99,,,-99.99,,2013-01-01 22:42:00,
2013-01-01 17:52:00,14.0,3.0,30.05,SW,229,1.0,-999.0,62,-99.99,,,-99.99,,2013-01-01 22:52:00,
2013-01-01 18:02:00,13.0,3.0,30.06,SW,229,0.0,-999.0,64,-99.99,,,-99.99,,2013-01-01 23:02:00,
2013-01-01 18:12:00,13.0,3.0,30.06,SW,229,0.0,-999.0,64,-99.99,,,-99.99,,2013-01-01 23:12:00,
2013-01-01 18:22:00,12.0,3.0,30.06,SW,229,0.0,-999.0,65,-99.99,,,-99.99,,2013-01-01 23:22:00,
2013-01-01 18:32:00,12.0,3.0,30.06,WSW,241,0.0,-999.0,66,-99.99,,,-99.99,,2013-01-01 23:32:00,
2013-01-01 18:42:00,12.0,3.0,30.06,WSW,241,0.0,-999.0,66,-99.99,,,-99.99,,2013-01-01 23:42:00,
2013-01-01 18:52:00,12.0,3.0,30.06,WSW,240,0.0,-999.0,66,-99.99,,,-99.99,,2013-01-01 23:52:00,
2013-01-01 19:02:00,11.0,2.0,30.05,WSW,240,0.0,-999.0,67,-99.99,,,-99.99,,2013-01-02 00:02:00,
2013-01-01 19:12:00,11.0,2.0,30.05,WSW,240,0.0,-999.0,67,-99.99,,,-99.99,,2013-01-02 00:12:00,
2013-01-01 19:22:00,11.0,2.0,30.05,SW,233,0.0,-999.0,67,-99.99,,,-99.99,,2013-01-02 00:22:00,
2013-01-01 19:32:00,10.0,2.0,30.05,SW,230,0.0,-999.0,68,-99.99,,,-99.99,,2013-01-02 00:32:00,
2013-01-01 19:42:00,10.0,2.0,30.05,SW,230,0.0,-999.0,68,-99.99,,,-99.99,,2013-01-02 00:42:00,
2013-01-01 19:52:00,10.0,2.0,30.05,SW,232,0.0,-999.0,68,-99.99,,,-99.99,,2013-01-02 00:52:00,
2013-01-01 20:02:00,9.0,1.0,30.05,WSW,237,0.0,-999.0,70,-99.99,,,-99.99,,2013-01-02 01:02:00,
2013-01-01 20:12:00,9.0,1.0,30.05,WSW,237,0.0,-999.0,70,-99.99,,,-99.99,,2013-01-02 01:12:00,
2013-01-01 20:22:00,9.0,1.0,30.05,WSW,250,0.0,-999.0,70,-99.99,,,-99.99,,2013-01-02 01:22:00,
2013-01-01 20:32:00,9.0,1.0,30.04,WSW,249,0.0,-999.0,70,-99.99,,,-99.99,,2013-01-02 01:32:00,
2013-01-01 20:42:00,9.0,1.0,30.04,WSW,249,0.0,-999.0,70,-99.99,,,-99.99,,2013-01-02 01:42:00,
2013-01-01 20:52:00,8.0,1.0,30.04,WSW,247,1.0,-999.0,72,-99.99,,,-99.99,,2013-01-02 01:52:00,
2013-01-01 21:02:00,8.0,1.0,30.04,SW,234,0.0,-999.0,73,-99.99,,,-99.99,,2013-01-02 02:02:00,
2013-01-01 21:12:00,8.0,1.0,30.04,SW,234,0.0,-999.0,73,-99.99,,,-99.99,,2013-01-02 02:12:00,
2013-01-01 21:22:00,8.0,1.0,30.04,SW,233,0.0,-999.0,73,-99.99,,,-99.99,,2013-01-02 02:22:00,
2013-01-01 21:32:00,8.0,1.0,30.04,SW,233,0.0,-999.0,73,-99.99,,,-99.99,,2013-01-02 02:32:00,
2013-01-01 21:42:00,8.0,1.0,30.04,SW,233,0.0,-999.0,73,-99.99,,,-99.99,,2013-01-02 02:42:00,
2013-01-01 21:52:00,10.0,3.0,30.04,SSW,202,2.0,-999.0,72,-99.99,,,-99.99,,2013-01-02 02:52:00,
2013-01-01 22:02:00,10.0,3.0,30.03,SW,227,2.0,-999.0,73,-99.99,,,-99.99,,2013-01-02 03:02:00,
2013-01-01 22:12:00,10.0,3.0,30.03,SW,227,2.0,-999.0,73,-99.99,,,-99.99,,2013-01-02 03:12:00,
2013-01-01 22:22:00,11.0,5.0,30.03,WSW,244,1.0,-999.0,75,-99.99,,,-99.99,,2013-01-02 03:22:00,
2013-01-01 22:32:00,11.0,6.0,30.02,WSW,242,2.0,-999.0,78,-99.99,,,-99.99,,2013-01-02 03:32:00,
2013-01-01 22:42:00,11.0,6.0,30.02,WSW,242,2.0,-999.0,78,-99.99,,,-99.99,,2013-01-02 03:42:00,
2013-01-01 22:52:00,12.0,7.0,30.03,WSW,249,2.0,-999.0,81,-99.99,,,-99.99,,2013-01-02 03:52:00,
2013-01-01 23:02:00,12.0,8.0,30.02,West,260,2.0,-999.0,82,-99.99,,,-99.99,,2013-01-02 04:02:00,
2013-01-01 23:12:00,12.0,8.0,30.02,West,260,2.0,-999.0,82,-99.99,,,-99.99,,2013-01-02 04:12:00,
2013-01-01 23:22:00,12.0,8.0,30.02,WSW,246,2.0,-999.0,83,-99.99,,,-99.99,,2013-01-02 04:22:00,
2013-01-01 23:32:00,12.0,8.0,30.02,WSW,246,2.0,-999.0,83,-99.99,,,-99.99,,2013-01-02 04:32:00,
2013-01-01 23:42:00,12.0,8.0,30.02,WSW,246,2.0,-999.0,83,-99.99,,,-99.99,,2013-01-02 04:42:00,
2013-01-01 23:52:00,13.0,9.0,30.02,West,263,1.0,-999.0,85,-99.99,,,-99.99,,2013-01-02 04:52:00,